Hourly Data Report for July 20, 2021

BONAVISTA
NEWFOUNDLAND
Current Station Operator: ECCC - MSC

48°40'02.000" N
53°06'51.000" W
25.60 m
8400601
71178
AVA

Download Data

Hourly Data (July 2021)
Hourly Data Report for July 20, 2021
TIME
LST
Temp Definition
°C
Dew Point Definition
°C
Rel Hum Definition
%
Precip. Amount Definition
mm

Wind Dir Definition
10's deg

Wind Spd Definition
km/h
Visibility Definition
km
Stn Press Definition
kPa
Hmdx Definition


Wind Chill Definition


Weather Definition


00:30 14.6 11.9 84 0.0 17 24   101.27     LegendNANA
01:30 14.0 11.9 88 0.0 17 25   101.23     LegendNANA
02:30 14.7 12.3 86 0.0 18 13   101.20     LegendNANA
03:30 14.6 12.3 86 0.0 14 12   101.08     LegendNANA
04:30 14.3 12.2 87 0.0 15 11   101.05     LegendNANA
05:30 14.7 12.4 86 0.0 17 10   101.01     LegendNANA
06:30 15.1 12.8 86 0.0 19 13   101.01     LegendNANA
07:30 15.3 13.3 88 0.0 17 20   100.97     LegendNANA
08:30 16.5 15.2 92 0.0 18 22   100.94     LegendNANA
09:30 17.1 16.0 93 0.0 17 22   100.87     LegendNANA
10:30 19.9 17.4 85 0.0 19 26   100.79     LegendNANA
11:30 21.3 17.9 81 0.0 21 27   100.76 27   LegendNANA
12:30 20.1 18.8 93 0.9 21 27   100.77 27   LegendNANA
13:30 19.1 17.7 92 0.6 23 25   100.74     LegendNANA
14:30 21.6 19.4 87 0.2 21 26   100.70 29   LegendNANA
15:30 21.6 18.7 83 0.0 21 28   100.67 28   LegendNANA
16:30 20.3 17.9 86 0.0 21 29   100.66 26   LegendNANA
17:30 19.7 18.6 93 1.0 20 33   100.65     LegendNANA
18:30 19.5 18.4 93 0.4 18 28   100.59     LegendNANA
19:30 19.0 18.1 95 0.2 19 23   100.61     LegendNANA
20:30 18.9 17.9 94 1.7 19 28   100.58     LegendNANA
21:30 17.9 16.9 94 0.0 22 33   100.61     LegendNANA
22:30 17.8 16.8 94 0.0 22 32   100.63     LegendNANA
23:30 17.9 16.9 94 0.0 22 25   100.60     LegendNANA

Notes on Data Quality.

Legend

  • E = Estimated
  • M = Missing
  • NA = Not Available*
  • [empty] = Indicates an unobserved value
Date modified: